Regional Weather Roundup
Issued by NWS

Home | Current Version | Previous Version | Text Only | Print | Product List | Glossary Off
Versions: 1 2 3 4 5 6 7 8 9 10 11 12 13 14 15 16 17 18 19 20 21 22 23 24 25 26 27 28 29 30 31 32 33 34 35 36 37 38 39 40 41 42 43 44 45 46 47 48 49 50

000
ASUS43 KMKX 031221
RWRWI

WISCONSIN REGIONAL WEATHER ROUNDUP
NATIONAL WEATHER SERVICE MILWAUKEE/SULLIVAN WI
700 AM CDT MON AUG 03 2015

NOTE: "FAIR" INDICATES FEW OR NO CLOUDS BELOW 12,000 FEET WITH NO
SIGNIFICANT WEATHER AND/OR OBSTRUCTIONS TO VISIBILITY.

WIZ001-002-006>008-014>016-023>028-031300-
NORTHWEST WISCONSIN

CITY           SKY/WX    TMP DP  RH WIND       PRES   REMARKS
SUPERIOR ARPT  CLOUDY    60  49  68 NW13      29.80R
6HR MIN TEMP:  49; 6HR MAX TEMP:  61;

ASHLAND        PTSUNNY   55  49  80 W6        29.78S
6HR MIN TEMP:  53; 6HR MAX TEMP:  59;

HAYWARD        CLOUDY    53  48  83 SW3       29.83R
6HR MIN TEMP:  47; 6HR MAX TEMP:  62;

SIREN          MOCLDY    56  48  75 W7        29.85S
6HR MIN TEMP:  53; 6HR MAX TEMP:  59;

CUMBERLAND     FAIR      54  48  82 W5        29.84S
RICE LAKE      FAIR      54  49  85 CALM      29.86R
6HR MIN TEMP:  51; 6HR MAX TEMP:  56;

CHETEK         FAIR      59  49  70 W3        29.84S
6HR MIN TEMP:  57; 6HR MAX TEMP:  61;

LADYSMITH      SUNNY     57  49  77 W7        29.85R
6HR MIN TEMP:  54; 6HR MAX TEMP:  59;

EAU CLAIRE     SUNNY     58  50  75 W6        29.84R
6HR MIN TEMP:  56; 6HR MAX TEMP:  62;

MENOMONIE      CLEAR     61  51  70 W7        29.86S
6HR MIN TEMP:  56; 6HR MAX TEMP:  62;

NEW RICHMOND   CLEAR     56  52  88 W3        29.87S
6HR MIN TEMP:  51; 6HR MAX TEMP:  58;

OSCEOLA        CLEAR     54  54 100 SW5       29.89S
6HR MIN TEMP:  50; 6HR MAX TEMP:  60;

$$

WIZ003>005-009-010-017-018-031300-
NORTH CENTRAL WISCONSIN

CITY           SKY/WX    TMP DP  RH WIND       PRES   REMARKS
MANITOWISH WTR CLOUDY    54  51  88 W6        29.79S
6HR MIN TEMP:  51; 6HR MAX TEMP:  56;

ARBOR VITAE    SUNNY     57  52  84 W3        29.79S
6HR MIN TEMP:  55; 6HR MAX TEMP:  59;

WOODRUFF       SUNNY     57  52  84 W3        29.79S
6HR MIN TEMP:  55; 6HR MAX TEMP:  59;

RHINELANDER    MOSUNNY   54  51  90 W7        29.80S
6HR MIN TEMP:  50; 6HR MAX TEMP:  57;

EAGLE RIVER    SUNNY     56  51  84 W5        29.78S
6HR MIN TEMP:  50; 6HR MAX TEMP:  57;

LAND O LAKES   PTSUNNY   57  50  78 CALM      29.79R
6HR MIN TEMP:  54; 6HR MAX TEMP:  60;

PHILLIPS       SUNNY     54  49  85 W5        29.81R
6HR MIN TEMP:  51; 6HR MAX TEMP:  57;

TOMAHAWK       SUNNY     52  49  89 W5        29.81S
6HR MIN TEMP:  49; 6HR MAX TEMP:  53;

MEDFORD        SUNNY     54  49  85 W5        29.83R
6HR MIN TEMP:  51; 6HR MAX TEMP:  58;

MERRILL        NOT AVBL
$$

WIZ029-030-035-036-043>047-031300-
CENTRAL WISCONSIN

CITY           SKY/WX    TMP DP  RH WIND       PRES   REMARKS
WAUSAU         SUNNY     57  50  77 NW9       29.80R
6HR MIN TEMP:  56; 6HR MAX TEMP:  63;

MOSINEE        SUNNY     55  52  88 W8        29.83R
MARSHFIELD     SUNNY     56  48  74 W5        29.84R
6HR MIN TEMP:  53; 6HR MAX TEMP:  62;

STEVENS POINT  SUNNY     57  49  74 W7        29.83R
6HR MIN TEMP:  56; 6HR MAX TEMP:  63;

WAUPACA        SUNNY     61  54  76 W8        29.81S
6HR MIN TEMP:  60; 6HR MAX TEMP:  67;

WAUTOMA        SUNNY     60  53  77 W6        29.83R
6HR MIN TEMP:  56; 6HR MAX TEMP:  66;

WISC RAPIDS    SUNNY     58  49  72 NW7       29.84R
6HR MIN TEMP:  56; 6HR MAX TEMP:  64;

CAMP DOUGLAS   SUNNY     54  54 100 W7        29.85R
6HR MIN TEMP:  48; 6HR MAX TEMP:  65;

$$

WIZ011>013-019>022-031-037>040-048>050-031300-
NORTHEAST WISCONSIN

CITY           SKY/WX    TMP DP  RH WIND       PRES   REMARKS
ANTIGO         SUNNY     53  51  92 W6        29.81S
SHAWANO        SUNNY     59  54  84 W6        29.79S
6HR MIN TEMP:  57; 6HR MAX TEMP:  64;

OCONTO         MOSUNNY   57  57 100 W3        29.76S
6HR MIN TEMP:  55; 6HR MAX TEMP:  59;

STURGEON BAY   CLOUDY    61  52  72 NW6       29.79R
6HR MIN TEMP:  59; 6HR MAX TEMP:  63;

GREEN BAY      SUNNY     60  56  86 W8        29.78R
6HR MIN TEMP:  57; 6HR MAX TEMP:  64;

MANITOWOC      SUNNY     62  56  80 MISG      29.79R
6HR MIN TEMP:  61; 6HR MAX TEMP:  65;

APPLETON       MOSUNNY   57  55  94 W9        29.80R
CLINTONVILLE   SUNNY     59  52  77 W6        29.80R
OSHKOSH        SUNNY     61  54  77 W5        29.80R
6HR MIN TEMP:  59; 6HR MAX TEMP:  66;

$$

WIZ032>034-041-042-053>061-031300-
SOUTHWEST WISCONSIN

CITY           SKY/WX    TMP DP  RH WIND       PRES   REMARKS
LA CROSSE      SUNNY     62  56  80 S3        29.86S
6HR MIN TEMP:  57; 6HR MAX TEMP:  71;

SPARTA         SUNNY     53  49  87 CALM      29.87S
6HR MIN TEMP:  48; 6HR MAX TEMP:  68;

VIROQUA        SUNNY     57  52  81 SW5       29.89R
6HR MIN TEMP:  53; 6HR MAX TEMP:  67;

BOSCOBEL       SUNNY     58  56  93 CALM      29.88R
6HR MIN TEMP:  54; 6HR MAX TEMP:  73;

PRAIRIE DU CHI CLEAR     60  56  85 CALM      29.89R
6HR MIN TEMP:  58; 6HR MAX TEMP:  72;

PLATTEVILLE    SUNNY     61  56  83 N3        29.88S
6HR MIN TEMP:  60; 6HR MAX TEMP:  71;

$$

WIZ056-057-062-063-064-067-068-031300-
SOUTH CENTRAL WISCONSIN

CITY           SKY/WX    TMP DP  RH WIND       PRES   REMARKS
REEDSBURG      SUNNY     59  52  77 CALM      29.86R
6HR MIN TEMP:  58; 6HR MAX TEMP:  69;

BARABOO/DELLS  SUNNY     60  50  69 CALM      29.86R
6HR MIN TEMP:  56; 6HR MAX TEMP:  70;

LONE ROCK      SUNNY     60  54  80 W6        29.87R
6HR MIN TEMP:  57; 6HR MAX TEMP:  74;

MINERAL POINT  SUNNY     61  52  72 CALM      29.88S
MADISON        MOSUNNY   64  54  69 CALM      29.85R
6HR MIN TEMP:  62; 6HR MAX TEMP:  71;

MIDDLETON      SUNNY     62  55  77 W6        29.86R
6HR MIN TEMP:  59; 6HR MAX TEMP:  70;

WATERTOWN      SUNNY     61  61 100 CALM      29.83R
6HR MIN TEMP:  57; 6HR MAX TEMP:  67;

MONROE         SUNNY     63  52  67 NW7       29.86R
JANESVILLE     SUNNY     63  61  94 NW5       29.84R
$$

WIZ051-052-058>065-066-070>072-031300-
SOUTHEAST WISCONSIN

CITY           SKY/WX    TMP DP  RH WIND       PRES   REMARKS
MILWAUKEE      MOSUNNY   67  56  67 NW7       29.81R
6HR MIN TEMP:  65; 6HR MAX TEMP:  69;

WAUKESHA       SUNNY     63  57  82 W8        29.84R
MILWAUKEE/TIMM SUNNY     63  54  72 W7        29.83R
RACINE         SUNNY     65  59  81 W8        29.83R
6HR MIN TEMP:  63; 6HR MAX TEMP:  66;

BURLINGTON     SUNNY     62  57  86 NW7       29.83R
6HR MIN TEMP:  58; 6HR MAX TEMP:  62;

KENOSHA        MOSUNNY   65  60  84 NW7       29.82R
6HR MIN TEMP:  62; 6HR MAX TEMP:  66;

FOND DU LAC    SUNNY     62  55  77 W8        29.81R
6HR MIN TEMP:  59; 6HR MAX TEMP:  65;

SHEBOYGAN      SUNNY     62  58  86 W7        29.80R
6HR MIN TEMP:  60; 6HR MAX TEMP:  64;

WEST BEND      SUNNY     61  54  77 W3        29.82R
JUNEAU         SUNNY     61  56  85 W5        29.84R
6HR MIN TEMP:  59; 6HR MAX TEMP:  67;

$$

LSZ147-162-031300-
LAKE SUPERIOR

STATION/POSITION TIME  TEMP    WIND        PRES    WAVE
                       AIR SEA DIR/SP/G            HT/PER
                 (UTC) (F)     (DEG/KT/KT) (MB)    (FT/S)
W MID LAKE BUOY  1150   57 55  270/ 14/ 16 1006.1R   1/ 3
DEVILS ISLAND    1200   57     260/ 17/ 20 1007.5R
PORT WING        1100   59     230/  7/ 10 1008.8
SAXON HARBOR     1100   62                 1007.5S
$$

LMZ867-665-643>646-031300-
LAKE MICHIGAN

STATION/POSITION TIME  TEMP    WIND        PRES    WAVE
                       AIR SEA DIR/SP/G            HT/PER



USA.gov is the U.S. government's official web portal to all federal, state and local government web resources and services.